Weather in Veseloye

Russia / Republic of Kalmykia     46°06′41″N   42°20′56″E
temp.,
°C
wind,
m/s
gust,
m/s
humid.,
%
clouds,
%
prec.,
mm/h
press.,
hPa
HPBL,
m
16 june, wed
wed1600:00+20ese11800 0.3 100911
03:00+19ese22830 0.3 101011
06:00+20ese25830 0.0 1010138
09:00+26e34620 0.1 1010650
12:00+30e464845 0.0 10092024
15:00+31e584338 0.0 10082437
18:00+28e375790 0.0 1007162
21:00+24ene413590 0.0 1007222
17 june, thu
thu1700:00+21ene47705 0.1 1006111
03:00+20ne397632 0.2 1006181
06:00+21ne61375100 0.0 1006485
09:00+26e5758100 0.6 10071212
12:00+23w5776100 0.8 1009234
15:00+20wnw101491100 5.8 1011408
18:00+19wnw81688100 8.2 1013569
21:00+18wnw41095100 9.9 1016370
18 june, fri
fri1800:00+17wnw399752 0.1 1016306
03:00+16wnw369817 0.1 1017158
06:00+17wnw4992100 0.0 1017308
09:00+21nw57690 0.0 1018709
12:00+25nw55580 0.0 10171163
15:00+26nnw44550 0.0 10161363
18:00+25n34670 0.0 1016956
21:00+20nnw34860 0.0 101862
19 june, sat
sat1900:00+18n22890 0.0 101721
03:00+18nne34880 0.0 101650
06:00+20e514760 0.0 1017451
09:00+25e812500 0.0 1017964
12:00+29e913390 0.0 10161683
15:00+31e914390 0.0 10142273
18:00+28ese71444100 0.0 1014528
21:00+24e616435 0.0 1015553
20 june, sun
sun2000:00+20ene515524 0.0 1015379
03:00+21e7184286 0.0 1014568
06:00+20e6184996 0.0 1014510
09:00+26e71442100 0.0 1014864
12:00+32e814320 0.0 10131612
15:00+35ese914320 0.0 10112119
18:00+30ese1016380 0.0 1012853
21:00+26ese818320 0.0 1013751